EW8215 Weather Reports


time (UTC)temp
F
wind
direction
speed
knots
gust
knots
rain 1hr
in
rain 24hr
in
rain mn
in
humidity
%
barometer
mb
20260509201454 88 141 1.7 2.6 0.00 0.00 0.00 62 1009.8
20260509200951 88 20 5.2 6.1 0.00 0.00 0.00 63 1009.8
20260509200446 89 237 5.2 7.8 0.00 0.00 0.00 62 1010.0
20260509195943 87 160 0.0 1.7 0.00 0.00 0.00 61 1010.0
20260509195439 88 333 2.6 4.3 0.00 0.00 0.00 66 1010.0
20260509194938 88 124 1.7 2.6 0.00 0.00 0.00 62 1010.0
20260509194434 88 340 5.2 6.1 0.00 0.00 0.00 60 1009.9
20260509193931 87 153 0.0 0.0 0.00 0.00 0.00 64 1009.9
20260509193430 87 171 0.0 1.7 0.00 0.00 0.00 63 1010.1
20260509192927 87 3 5.2 6.1 0.00 0.00 0.00 64 1009.7
20260509192423 88 355 5.2 7.8 0.00 0.00 0.00 67 1010.0
20260509191918 88 123 3.5 4.3 0.00 0.00 0.00 64 1010.0
20260509191409 88 156 0.9 1.7 0.00 0.00 0.00 63 1010.3
20260509190905 86 163 0.9 1.7 0.00 0.00 0.00 65 1010.4
20260509190403 86 187 2.6 2.6 0.00 0.00 0.00 65 1010.3
20260509185900 86 117 1.7 2.6 0.00 0.00 0.00 69 1010.4
20260509185356 85 121 0.9 1.7 0.00 0.00 0.00 70 1010.7
20260509184853 86 86 2.6 2.6 0.00 0.00 0.00 70 1010.8
20260509184350 87 94 1.7 2.6 0.00 0.00 0.00 69 1010.7
20260509183848 87 136 1.7 1.7 0.00 0.00 0.00 67 1010.9
20260509183342 87 176 1.7 1.7 0.00 0.00 0.00 67 1010.8
20260509182838 87 186 1.7 2.6 0.00 0.00 0.00 68 1010.9
20260509182336 86 192 2.6 2.6 0.00 0.00 0.00 70 1010.9
20260509181833 86 185 3.5 4.3 0.00 0.00 0.00 69 1011.0
20260509181330 87 167 1.7 1.7 0.00 0.00 0.00 69 1010.9
20260509180827 86 169 0.0 0.0 0.00 0.00 0.00 68 1011.0
20260509180323 85 146 2.6 2.6 0.00 0.00 0.00 69 1011.2
20260509175820 84 160 1.7 2.6 0.00 0.00 0.00 73 1011.1
20260509175316 86 348 2.6 2.6 0.00 0.00 0.00 70 1011.2
20260509174812 85 180 1.7 2.6 0.00 0.00 0.00 69 1011.3
20260509174308 85 135 0.9 1.7 0.00 0.00 0.00 69 1011.3
20260509173804 85 164 0.9 1.7 0.00 0.00 0.00 72 1011.3
20260509173300 84 144 0.0 0.0 0.00 0.00 0.00 74 1011.3
20260509172756 84 186 2.6 2.6 0.00 0.00 0.00 73 1011.4
20260509172253 83 166 2.6 2.6 0.00 0.00 0.00 73 1011.5
20260509171749 82 134 1.7 2.6 0.00 0.00 0.00 78 1011.4
20260509171245 82 142 0.0 1.7 0.00 0.00 0.00 77 1011.6
20260509170742 83 154 1.7 1.7 0.00 0.00 0.00 76 1011.6
20260509170238 85 4 3.5 4.3 0.00 0.00 0.00 72 1011.8
20260509165736 85 117 0.9 2.6 0.00 0.00 0.00 72 1011.7
20260509165232 84 157 1.7 1.7 0.00 0.00 0.00 75 1011.7
20260509164728 83 164 2.6 4.3 0.00 0.00 0.00 77 1011.7
20260509164224 82 162 3.5 4.3 0.00 0.00 0.00 79 1011.7
20260509163721 81 162 1.7 2.6 0.00 0.00 0.00 80 1011.7
20260509163217 80 165 2.6 4.3 0.00 0.00 0.00 83 1012.0
20260509162715 80 174 2.6 2.6 0.00 0.00 0.00 81 1012.1
20260509162210 80 151 0.0 0.0 0.00 0.00 0.00 81 1011.9
20260509161706 80 148 0.0 0.0 0.00 0.00 0.00 80 1012.0
20260509161203 80 300 1.7 2.6 0.00 0.00 0.00 81 1012.0
20260509160658 80 152 1.7 2.6 0.00 0.00 0.00 81 1012.3
20260509160154 80 160 0.0 0.0 0.00 0.00 0.00 81 1012.1
20260509155650 80 128 0.9 1.7 0.00 0.00 0.00 83 1012.1
20260509155146 81 140 0.0 0.0 0.00 0.00 0.00 80 1011.7
20260509154642 78 163 0.9 1.7 0.00 0.00 0.00 85 1012.0
20260509154139 78 131 0.0 0.0 0.00 0.00 0.00 86 1011.8
20260509153636 78 137 0.9 1.7 0.00 0.00 0.00 87 1011.9
20260509153133 78 148 0.0 0.0 0.00 0.00 0.00 86 1011.8
20260509152628 78 130 0.0 1.7 0.00 0.00 0.00 86 1011.8
20260509152126 77 164 1.7 2.6 0.00 0.00 0.00 88 1011.9
20260509151622 78 132 1.7 1.7 0.00 0.00 0.00 86 1011.6
20260509151120 77 148 0.0 0.0 0.00 0.00 0.00 87 1011.6
20260509150618 77 168 0.0 0.0 0.00 0.00 0.00 88 1011.7
20260509150116 77 152 0.0 1.7 0.00 0.00 0.00 89 1011.6
20260509145611 77 341 3.5 4.3 0.00 0.00 0.00 88 1011.7
20260509145106 78 309 1.7 4.3 0.00 0.00 0.00 88 1011.4
20260509144603 78 134 1.7 2.6 0.00 0.00 0.00 88 1011.4
20260509144100 77 186 1.7 2.6 0.00 0.00 0.00 89 1011.3
20260509143557 77 120 2.6 2.6 0.00 0.00 0.00 89 1011.2
20260509143055 76 212 4.3 6.1 0.00 0.00 0.00 90 1010.8
20260509142550 75 183 1.7 2.6 0.00 0.00 0.00 92 1010.7
20260509142046 75 6 2.6 2.6 0.00 0.00 0.00 93 1010.9
20260509141543 75 316 2.6 4.3 0.00 0.00 0.00 93 1011.0
20260509141039 75 335 6.1 7.8 0.00 0.00 0.00 93 1010.9
20260509140536 75 249 3.5 4.3 0.00 0.00 0.00 94 1010.3
20260509140034 75 153 0.9 1.7 0.00 0.00 0.00 95 1010.1
20260509135531 74 205 5.2 7.8 0.00 0.00 0.00 95 1010.0
20260509135029 74 213 1.7 6.1 0.00 0.00 0.00 97 1010.0
20260509134526 73 203 2.6 4.3 0.00 0.00 0.00 98 1010.3
20260509134023 73 202 4.3 6.1 0.00 0.00 0.00 98 1010.2
20260509133520 73 178 4.3 6.1 0.00 0.00 0.00 98 1010.1
20260509133018 73 199 2.6 4.3 0.00 0.00 0.00 98 1009.9
20260509132516 73 190 1.7 2.6 0.00 0.00 0.00 98 1010.0
20260509132014 72 143 3.5 7.8 0.00 0.00 0.00 99 1009.6
20260509131509 72 146 5.2 7.8 0.00 0.00 0.00 99 1009.9
20260509131006 72 186 2.6 4.3 0.00 0.00 0.00 99 1009.9
20260509130502 71 171 1.7 1.7 0.00 0.00 0.00 99 1009.7
20260509125959 71 172 0.0 1.7 0.00 0.00 0.00 99 1010.0
20260509125455 71 190 0.0 0.0 0.00 0.00 0.00 99 1009.9
20260509124951 71 176 1.7 1.7 0.00 0.00 0.00 99 1010.1
20260509124449 71 155 0.0 0.0 0.00 0.00 0.00 99 1010.1
20260509123946 71 167 0.0 0.0 0.00 0.00 0.00 99 1010.1
20260509123443 71 164 0.0 0.0 0.00 0.00 0.00 99 1010.2
20260509122939 71 163 0.0 0.0 0.00 0.00 0.00 99 1010.3
20260509122436 70 164 0.0 0.0 0.00 0.00 0.00 99 1010.2
20260509121933 70 78 2.6 2.6 0.00 0.00 0.00 99 1010.3
20260509121430 70 157 0.0 0.0 0.00 0.00 0.00 99 1010.3
20260509120928 70 150 0.0 0.0 0.00 0.00 0.00 99 1010.4
20260509120425 70 159 0.0 0.0 0.00 0.00 0.00 99 1010.3
20260509115923 71 153 0.0 0.0 0.00 0.00 0.00 99 1010.3
20260509115420 71 155 0.0 0.0 0.00 0.00 0.00 99 1010.4
20260509114918 71 156 0.0 0.0 0.00 0.00 0.00 99 1010.9
20260509114416 71 155 0.0 0.0 0.00 0.00 0.00 99 1010.8
20260509113916 71 159 0.9 1.7 0.00 0.00 0.00 99 1011.0
20260509113413 71 154 0.0 0.0 0.00 0.00 0.00 99 1011.1
20260509112909 71 154 0.0 0.0 0.00 0.00 0.00 99 1011.0
20260509112406 71 155 0.0 0.0 0.00 0.00 0.00 99 1011.4
20260509111903 71 129 0.9 1.7 0.00 0.00 0.00 99 1011.3
20260509111400 71 167 0.9 2.6 0.00 0.00 0.00 99 1011.2
20260509110858 71 171 3.5 4.3 0.00 0.00 0.00 99 1011.3
20260509110353 71 171 1.7 2.6 0.00 0.00 0.00 99 1011.4
20260509105852 71 165 0.0 0.0 0.00 0.00 0.00 98 1011.7
20260509105350 71 165 0.0 0.0 0.00 0.00 0.00 98 1011.8
20260509104847 71 149 0.0 0.0 0.00 0.00 0.00 98 1011.6
20260509104343 71 146 0.0 0.0 0.00 0.00 0.00 98 1011.7
20260509103841 71 159 0.0 0.0 0.00 0.00 0.00 98 1011.7
20260509103338 71 161 0.0 0.0 0.00 0.00 0.00 98 1011.8
20260509102837 71 162 0.0 0.0 0.00 0.00 0.00 98 1011.8
20260509102333 71 158 0.0 0.0 0.00 0.00 0.00 98 1011.8
20260509101829 71 141 0.0 0.0 0.00 0.00 0.00 98 1011.9
20260509101326 71 146 0.9 1.7 0.00 0.00 0.00 98 1011.9
20260509100824 71 141 0.9 1.7 0.00 0.00 0.00 98 1011.8
20260509100320 71 174 0.0 0.0 0.00 0.00 0.00 98 1011.8
20260509095817 71 123 0.0 0.0 0.00 0.00 0.00 98 1011.9
20260509095314 71 157 1.7 1.7 0.00 0.00 0.00 98 1011.4
20260509094811 71 146 0.0 0.0 0.00 0.00 0.00 98 1011.3
20260509094308 71 145 0.0 0.0 0.00 0.00 0.00 98 1011.0
20260509093806 71 157 0.0 0.0 0.00 0.00 0.00 98 1011.1
20260509093303 71 156 0.0 0.0 0.00 0.00 0.00 98 1011.0
20260509092801 71 154 0.0 1.7 0.00 0.00 0.00 98 1011.3
20260509092259 71 208 1.7 2.6 0.00 0.00 0.00 98 1011.3
20260509091757 71 143 0.0 0.0 0.00 0.00 0.00 98 1011.5
20260509091253 71 143 0.0 0.0 0.00 0.00 0.00 98 1011.4
20260509090750 71 146 0.0 0.0 0.00 0.00 0.00 98 1011.3
20260509090247 71 139 0.0 0.0 0.00 0.00 0.00 98 1011.0
20260509085745 71 126 0.0 0.0 0.00 0.00 0.00 97 1010.9
20260509085242 71 153 0.0 0.0 0.00 0.00 0.00 97 1011.0
20260509084738 71 155 0.0 0.0 0.00 0.00 0.00 97 1010.9
20260509084235 71 157 0.0 0.0 0.00 0.00 0.00 97 1010.9
20260509083733 71 148 0.0 0.0 0.00 0.00 0.00 97 1010.8
20260509083230 71 147 0.0 0.0 0.00 0.00 0.00 97 1011.0
20260509082726 71 146 0.0 0.0 0.00 0.00 0.00 97 1011.0
20260509082223 71 155 0.0 0.0 0.00 0.00 0.00 97 1011.2
20260509081720 71 147 0.0 0.0 0.00 0.00 0.00 97 1011.0
20260509081218 71 148 0.0 0.0 0.00 0.00 0.00 97 1011.1
20260509080716 71 145 0.0 0.0 0.00 0.00 0.00 97 1011.1
20260509080213 71 150 0.0 0.0 0.00 0.00 0.00 97 1011.5
20260509075711 71 143 0.0 0.0 0.00 0.00 0.00 97 1011.4
20260509075209 71 145 0.0 0.0 0.00 0.00 0.00 97 1011.3
20260509074705 71 125 0.0 0.0 0.00 0.00 0.00 97 1011.3
20260509074202 71 147 0.0 0.0 0.00 0.00 0.00 97 1011.7
20260509073659 71 153 0.0 0.0 0.00 0.00 0.00 97 1011.6
20260509073155 71 154 0.0 0.0 0.00 0.00 0.00 97 1011.7
20260509072652 71 154 0.0 0.0 0.00 0.00 0.00 97 1011.6
20260509072148 71 155 0.0 0.0 0.00 0.00 0.00 97 1011.6
20260509071645 71 153 0.0 0.0 0.00 0.00 0.00 97 1011.3
20260509071142 71 153 0.0 0.0 0.00 0.00 0.00 97 1011.2
20260509070639 71 158 0.0 0.0 0.00 0.00 0.00 97 1011.3
20260509070136 70 159 0.0 0.0 0.00 0.00 0.00 97 1011.4
20260509065631 70 156 0.0 0.0 0.00 0.00 0.00 97 1011.4
20260509065128 70 156 0.0 0.0 0.00 0.00 0.00 97 1011.8
20260509064625 70 155 0.0 0.0 0.00 0.00 0.00 97 1011.6
20260509064123 70 156 0.0 0.0 0.00 0.00 0.00 97 1011.5
20260509063620 69 142 0.0 0.0 0.00 0.00 0.00 97 1011.5
20260509063116 69 142 0.0 0.0 0.00 0.00 0.00 97 1011.4
20260509062613 69 140 0.0 0.0 0.00 0.00 0.00 97 1011.2
20260509062110 69 140 0.0 0.0 0.00 0.00 0.00 97 1011.2
20260509061607 69 141 0.0 0.0 0.00 0.00 0.00 97 1011.4
20260509061104 70 141 0.0 0.0 0.00 0.00 0.00 97 1011.3
20260509060602 70 141 0.0 0.0 0.00 0.00 0.00 97 1011.3
20260509060058 70 140 0.0 0.0 0.00 0.00 0.00 97 1010.9
20260509055553 69 141 0.0 0.0 0.00 0.00 0.00 97 1011.1
20260509055049 70 141 0.0 0.0 0.00 0.00 0.00 97 1011.0
20260509054546 69 141 0.0 0.0 0.00 0.00 0.00 97 1010.7
20260509054044 69 141 0.0 0.0 0.00 0.00 0.00 96 1010.4
20260509053543 69 141 0.0 0.0 0.00 0.00 0.00 96 1010.4
20260509053039 70 141 0.0 0.0 0.00 0.00 0.00 96 1010.4
20260509052537 70 140 0.0 0.0 0.00 0.00 0.00 96 1010.5
20260509052035 71 144 0.0 0.0 0.00 0.00 0.00 96 1010.5
20260509051533 71 132 1.7 2.6 0.00 0.00 0.00 96 1010.7
20260509051030 71 144 0.0 1.7 0.00 0.00 0.00 95 1010.4
20260509050526 71 145 0.9 1.7 0.00 0.00 0.00 95 1010.7
20260509050017 71 141 1.7 1.7 0.00 0.00 0.00 95 1010.4
20260509045515 71 141 0.9 1.7 0.00 0.00 0.00 95 1010.4
20260509045011 71 139 0.9 1.7 0.00 0.00 0.00 95 1010.8
20260509044509 71 129 2.6 2.6 0.00 0.00 0.00 94 1010.5
20260509044006 71 144 0.0 0.0 0.00 0.00 0.00 94 1010.3
20260509043502 71 161 0.0 0.0 0.00 0.00 0.00 94 1010.3
20260509042957 71 160 0.0 0.0 0.00 0.00 0.00 94 1010.3
20260509042454 71 160 0.0 0.0 0.00 0.00 0.00 94 1010.4
20260509041950 72 149 0.0 0.0 0.00 0.00 0.00 94 1010.3
20260509041447 72 155 0.0 0.0 0.00 0.00 0.00 94 1010.3
20260509040945 72 157 0.0 1.7 0.00 0.00 0.00 93 1010.2
20260509040443 72 161 0.0 0.0 0.00 0.00 0.00 93 1010.2
20260509035939 72 156 0.0 0.0 0.00 0.00 0.00 93 1010.3
20260509035436 72 156 0.0 1.7 0.00 0.00 0.00 93 1010.0
20260509034933 72 153 0.9 1.7 0.00 0.00 0.00 93 1010.1
20260509034431 72 160 0.9 1.7 0.00 0.00 0.00 92 1010.1
20260509033928 72 161 0.9 1.7 0.00 0.00 0.00 92 1009.8
20260509033425 73 154 0.0 1.7 0.00 0.00 0.00 92 1009.9
20260509032921 73 160 0.9 1.7 0.00 0.00 0.00 91 1009.8
20260509032419 73 159 2.6 2.6 0.00 0.00 0.00 91 1010.0
20260509031917 73 159 2.6 4.3 0.00 0.00 0.00 90 1009.8
20260509031414 73 156 1.7 2.6 0.00 0.00 0.00 90 1010.0
20260509030911 74 156 3.5 4.3 0.00 0.00 0.00 90 1009.9
20260509030409 74 170 1.7 1.7 0.00 0.00 0.00 90 1009.8
20260509025906 74 159 2.6 4.3 0.00 0.00 0.00 89 1009.7
20260509025401 74 172 1.7 1.7 0.00 0.00 0.00 89 1009.6
20260509024856 74 157 2.6 2.6 0.00 0.00 0.00 89 1009.6
20260509024353 74 159 2.6 2.6 0.00 0.00 0.00 88 1009.5
20260509023850 74 190 3.5 4.3 0.00 0.00 0.00 88 1009.2
20260509023348 75 150 0.0 1.7 0.00 0.00 0.00 88 1009.3
20260509022844 75 149 2.6 2.6 0.00 0.00 0.00 88 1009.3
20260509022341 75 191 5.2 7.8 0.00 0.00 0.00 88 1009.3
20260509021838 75 147 4.3 6.1 0.00 0.00 0.00 88 1009.1
20260509021330 75 144 1.7 2.6 0.00 0.00 0.00 88 1009.1
20260509020828 75 156 5.2 6.1 0.00 0.00 0.00 88 1009.2
20260509020325 75 182 3.5 4.3 0.00 0.00 0.00 88 1009.0
20260509015822 75 160 0.9 1.7 0.00 0.00 0.00 88 1009.2
20260509015320 75 120 0.0 0.0 0.00 0.00 0.00 88 1009.3
20260509014816 75 142 0.0 0.0 0.00 0.00 0.00 88 1009.2
20260509014314 74 146 0.0 0.0 0.00 0.00 0.00 88 1009.2
20260509013810 74 148 0.0 0.0 0.00 0.00 0.00 89 1009.2
20260509013307 74 145 0.0 0.0 0.00 0.00 0.00 89 1009.2
20260509012803 74 138 0.0 0.0 0.00 0.00 0.00 90 1009.2
20260509012259 74 139 0.0 0.0 0.00 0.00 0.00 89 1009.0
20260509011757 74 139 0.0 0.0 0.00 0.00 0.00 89 1009.0
20260509011254 74 143 0.0 0.0 0.00 0.00 0.00 89 1009.3
20260509010752 74 136 2.6 2.6 0.00 0.00 0.00 88 1009.1
20260509010248 75 136 2.6 2.6 0.00 0.00 0.00 88 1009.1
20260509005746 75 137 2.6 2.6 0.00 0.00 0.00 88 1009.2
20260509005243 75 144 1.7 2.6 0.00 0.00 0.00 87 1009.3
20260509004737 75 130 1.7 2.6 0.00 0.00 0.00 87 1009.1
20260509004235 75 137 3.5 4.3 0.00 0.00 0.00 86 1009.1
20260509003733 75 147 1.7 1.7 0.00 0.00 0.00 86 1009.1
20260509003230 75 136 2.6 2.6 0.00 0.00 0.00 86 1009.2
20260509002727 75 124 3.5 4.3 0.00 0.00 0.00 86 1009.2
20260509002225 75 131 0.0 0.0 0.00 0.00 0.00 85 1009.4
20260509001722 76 140 0.0 0.0 0.00 0.00 0.00 84 1009.3
20260509001218 76 140 0.0 0.0 0.00 0.00 0.00 84 1009.5
20260509000716 76 140 0.0 0.0 0.00 0.00 0.00 84 1009.3
20260509000213 76 125 2.6 2.6 0.00 0.00 0.00 83 1009.5
20260508235710 76 135 2.6 2.6 0.00 0.00 0.00 83 1009.5
20260508235206 76 130 3.5 4.3 0.00 0.00 0.00 82 1009.3
20260508234704 77 142 1.7 2.6 0.00 0.00 0.00 82 1009.4
20260508234200 77 138 1.7 2.6 0.00 0.00 0.00 81 1009.4
20260508233659 77 135 2.6 2.6 0.00 0.00 0.00 81 1009.7
20260508233157 77 141 0.0 0.0 0.00 0.00 0.00 81 1009.5
20260508232654 78 140 0.0 0.0 0.00 0.00 0.00 81 1009.4
20260508232150 77 142 0.9 1.7 0.00 0.00 0.00 80 1009.6
20260508231649 77 142 0.0 0.0 0.00 0.00 0.00 81 1009.6
20260508231145 77 144 0.0 0.0 0.00 0.00 0.00 80 1009.6
20260508230642 77 141 0.0 0.0 0.00 0.00 0.00 79 1009.7
20260508230138 77 142 0.0 0.0 0.00 0.00 0.00 81 1009.7
20260508225636 77 147 0.0 0.0 0.00 0.00 0.00 81 1009.6
20260508225132 77 144 1.7 2.6 0.00 0.00 0.00 80 1009.6
20260508224630 77 135 3.5 4.3 0.00 0.00 0.00 79 1009.6
20260508224128 77 133 2.6 2.6 0.00 0.00 0.00 79 1009.7
20260508223625 77 151 1.7 1.7 0.00 0.00 0.00 79 1009.5
20260508223122 77 149 0.0 1.7 0.00 0.00 0.00 80 1009.6
20260508222619 77 142 1.7 1.7 0.00 0.00 0.00 80 1009.7
20260508222116 78 126 4.3 6.1 0.00 0.00 0.00 77 1009.8
20260508221612 77 156 0.0 1.7 0.00 0.00 0.00 80 1009.7
20260508221108 77 164 1.7 2.6 0.00 0.00 0.00 79 1009.7
20260508220605 78 146 0.0 1.7 0.00 0.00 0.00 81 1009.6
20260508215558 77 129 5.2 6.1 0.00 0.00 0.00 78 1009.7
20260508215055 77 122 1.7 4.3 0.00 0.00 0.00 79 1009.8
20260508214553 77 101 2.6 2.6 0.00 0.00 0.00 81 1009.7
20260508214049 78 136 1.7 4.3 0.00 0.00 0.00 78 1010.0
20260508213546 77 55 2.6 2.6 0.00 0.00 0.00 80 1009.6
20260508213042 78 148 0.0 0.0 0.00 0.00 0.00 81 1009.9
20260508212539 78 153 0.0 0.0 0.00 0.00 0.00 80 1010.0
20260508212035 78 117 3.5 4.3 0.00 0.00 0.00 79 1010.1
20260508211531 76 160 1.7 2.6 0.00 0.00 0.00 81 1010.1
20260508211027 76 120 4.3 4.3 0.00 0.00 0.00 81 1010.3
20260508210524 76 158 0.0 0.0 0.00 0.00 0.00 81 1010.5
20260508210022 77 150 0.0 1.7 0.00 0.00 0.00 81 1010.8
20260508205518 76 151 0.0 0.0 0.00 0.00 0.00 81 1010.7
20260508205014 75 143 1.7 2.6 0.00 0.00 0.00 82 1011.0
20260508204512 76 128 6.1 6.1 0.00 0.00 0.00 81 1011.0
20260508204007 76 129 3.5 4.3 0.00 0.00 0.00 79 1010.9
20260508203503 75 126 0.9 1.7 0.00 0.00 0.00 83 1011.0
20260508202959 75 122 1.7 2.6 0.00 0.00 0.00 82 1011.0
20260508202456 75 138 1.7 2.6 0.00 0.00 0.00 83 1011.3
20260508201953 75 54 0.9 2.6 0.00 0.00 0.00 83 1011.3